JE7ZDC Weather Reports


Display with metric or nautical units.
time (UTC)temp
F
wind
direction
speed
MPH
gust
MPH
rain 1hr
in
rain 24hr
in
rain mn
in
humidity
%
barometer
mb
20260509223019 60 207 0.0 2.0 0.00 0.00 0.00 57 1020.2
20260509221519 59 233 0.0 1.0 0.00 0.00 0.00 63 1020.1
20260509220012 58 120 0.0 0.0 0.00 0.00 0.00 67 1020.1
20260509214505 55 120 0.0 0.0 0.00 0.00 0.00 72 1020.1
20260509213002 52 117 0.0 0.0 0.00 0.00 0.00 78 1019.9
20260509211501 49 117 0.0 0.0 0.00 0.00 0.00 81 1019.7
20260509210115 47 117 0.0 0.0 0.00 0.00 0.00 83 1019.7
20260509204558 0 0.0 0.0 0.00 0.01 0.00 1019.4
20260509203050 0 0.0 0.0 0.00 0.01 0.00 1019.2
20260509201553 0 0.0 0.0 0.00 0.01 0.00 1018.8
20260509200050 0 0.0 0.0 0.00 0.01 0.00 1018.6
20260509194535 0 0.0 0.0 0.00 0.01 0.00 1018.4
20260509193032 0 0.0 0.0 0.00 0.01 0.00 1018.2
20260509191529 44 104 0.0 3.0 0.00 0.01 0.00 84 1018.0
20260509190026 44 128 0.0 0.0 0.00 0.01 0.00 86 1017.8
20260509184527 44 122 0.0 1.0 0.00 0.01 0.00 85 1017.5
20260509183020 45 122 0.0 1.0 0.00 0.01 0.00 83 1017.4
20260509181517 45 121 0.0 0.0 0.00 0.01 0.00 83 1017.3
20260509180014 46 122 0.0 1.0 0.00 0.01 0.00 82 1017.1
20260509174513 46 118 0.0 1.0 0.00 0.01 0.00 81 1017.1
20260509173010 46 92 0.0 1.0 0.00 0.01 0.00 81 1016.9
20260509171520 46 56 0.0 3.0 0.00 0.01 0.00 80 1016.8
20260509170020 47 115 0.0 1.0 0.00 0.01 0.00 79 1016.8
20260509164503 47 122 0.0 3.0 0.00 0.01 0.00 78 1016.5
20260509163100 47 114 0.0 1.0 0.00 0.01 0.00 78 1016.4
20260509163002 47 253 0.0 1.0 0.00 0.01 0.00 78 1016.4
20260509161601 48 94 0.0 0.0 0.00 0.01 0.00 77 1016.3
20260509160056 48 122 0.0 0.0 0.00 0.01 0.00 76 1016.2
20260509154558 49 110 0.0 1.0 0.00 0.01 0.00 74 1016.2
20260509153054 50 110 0.0 1.0 0.00 0.01 0.00 70 1015.9
20260509151546 51 110 0.0 1.0 0.00 0.01 0.00 67 1015.9
20260509150048 52 105 0.0 2.0 0.00 0.01 0.00 64 1015.7
20260509144540 53 100 0.0 1.0 0.00 0.01 0.01 63 1015.8
20260509143039 53 179 0.0 3.0 0.00 0.01 0.01 59 1015.6
20260509141537 54 267 0.0 4.0 0.00 0.01 0.01 59 1015.4
20260509140036 54 264 0.0 5.0 0.00 0.01 0.01 59 1015.3
20260509134545 55 282 0.0 6.0 0.00 0.01 0.01 59 1015.3
20260509133033 55 268 1.0 7.0 0.00 0.01 0.01 58 1015.1
20260509131546 55 201 1.0 6.0 0.00 0.01 0.01 58 1014.9
20260509130037 55 290 0.0 11.0 0.00 0.01 0.01 58 1014.9
20260509124530 55 226 0.0 9.0 0.00 0.02 0.01 58 1014.7
20260509123028 55 257 1.0 8.0 0.00 0.02 0.01 59 1014.5
20260509121529 55 210 1.0 6.0 0.00 0.02 0.01 59 1014.5
20260509120025 56 119 1.0 11.0 0.00 0.02 0.01 59 1014.2
20260509114527 56 247 1.0 8.0 0.00 0.04 0.01 59 1014.2
20260509113022 56 214 1.0 9.0 0.00 0.04 0.01 58 1014.1
20260509111521 56 248 2.0 8.0 0.00 0.04 0.01 58 1013.8
20260509110019 56 263 2.0 11.0 0.00 0.04 0.01 59 1013.5
20260509104518 56 232 0.0 7.0 0.00 0.05 0.01 60 1013.4
20260509103017 56 11 3.0 12.0 0.00 0.05 0.01 59 1013.2
20260509101528 56 262 1.0 13.0 0.00 0.05 0.01 59 1012.8
20260509100021 56 302 2.0 14.0 0.00 0.05 0.01 61 1012.7
20260509094516 56 275 7.0 17.0 0.00 0.06 0.01 59 1012.6
20260509093011 56 276 2.0 13.0 0.00 0.06 0.01 59 1012.3
20260509091517 57 281 3.0 14.0 0.00 0.06 0.01 55 1011.8
20260509090007 58 309 4.0 11.0 0.00 0.14 0.01 53 1011.9
20260509084512 59 272 1.0 7.0 0.00 0.14 0.01 51 1011.9
20260509083005 60 257 5.0 16.0 0.00 0.14 0.01 46 1011.7
20260509081501 60 285 4.0 11.0 0.00 0.14 0.01 44 1011.1
20260509080059 61 265 2.0 9.0 0.00 0.14 0.01 44 1010.9
20260509074606 62 236 6.0 13.0 0.00 0.14 0.01 42 1010.5
20260509073101 63 283 2.0 10.0 0.00 0.14 0.01 35 1010.4
20260509071604 64 290 2.0 9.0 0.00 0.14 0.01 42 1010.4
20260509070049 64 304 1.0 11.0 0.00 0.14 0.01 41 1010.5
20260509064557 63 262 4.0 11.0 0.00 0.25 0.01 37 1010.2
20260509063046 63 275 4.0 12.0 0.00 0.25 0.01 42 1010.1
20260509061543 64 238 3.0 17.0 0.00 0.25 0.01 44 1009.9
20260509060037 63 267 3.0 13.0 0.00 0.25 0.01 43 1009.8
20260509054536 63 243 6.0 14.0 0.00 0.25 0.01 39 1009.9
20260509053030 64 285 2.0 11.0 0.00 0.25 0.01 46 1009.7
20260509051534 64 264 1.0 11.0 0.00 0.25 0.01 54 1009.7
20260509050023 62 255 1.0 13.0 0.00 0.25 0.01 56 1009.8
20260509044520 62 248 5.0 11.0 0.00 0.25 0.01 52 1009.8
20260509043019 60 304 2.0 13.0 0.00 0.25 0.01 58 1010.0
20260509041517 60 293 5.0 10.0 0.00 0.25 0.01 55 1010.1
20260509040014 60 252 5.0 12.0 0.00 0.25 0.01 52 1009.8
20260509034533 63 257 2.0 14.0 0.00 0.25 0.01 52 1009.6
20260509033011 64 294 5.0 11.0 0.00 0.25 0.01 49 1009.4
20260509031509 63 221 2.0 17.0 0.00 0.25 0.01 50 1009.2
20260509030004 63 285 5.0 13.0 0.00 0.25 0.01 48 1009.3
20260509024559 63 237 0.0 13.0 0.00 0.25 0.01 52 1009.1
20260509023057 62 257 3.0 12.0 0.00 0.25 0.01 51 1009.1
20260509021555 61 246 3.0 13.0 0.00 0.25 0.01 49 1008.9
20260509020054 61 93 5.0 16.0 0.00 0.25 0.01 47 1009.0
20260509014553 61 282 3.0 15.0 0.00 0.25 0.01 49 1009.0
20260509013056 59 246 3.0 16.0 0.00 0.25 0.01 53 1008.8
20260509011550 59 347 5.0 14.0 0.00 0.25 0.01 56 1008.7
20260509010048 58 332 3.0 14.0 0.00 0.25 0.01 58 1008.5
20260509004558 57 305 3.0 22.0 0.00 0.25 0.01 59 1008.4
20260509003149 58 322 5.0 16.0 0.00 0.25 0.01 59 1008.4
20260509001551 58 225 4.0 17.0 0.00 0.25 0.01 58 1008.0
20260509000045 58 233 6.0 19.0 0.00 0.25 0.01 55 1007.6
20260508234542 58 349 6.0 17.0 0.00 0.25 0.01 59 1006.4
20260508233040 59 84 3.0 18.0 0.00 0.25 0.01 65 1006.1
20260508231539 61 280 1.0 5.0 0.00 0.25 0.01 58 1006.4
20260508230035 59 281 3.0 20.0 0.00 0.25 0.01 58 1005.2
20260508224545 58 309 10.0 20.0 0.00 0.25 0.01 60 1004.6